DELTA 1 DEB, 10661

Orbit data source: Space-Track

DELTA 1 DEB, 10661 is space debris in SSO originally from a launch on Thu, 29 Jul 1976 UTC launched from the Air Force Western Test Range (AFWTR). Debris objects in space refer to the collection of defunct objects orbiting the Earth. Examples of debris include non-operational satellites, rocket bodies, and fragments generated from explosions, collisions, or faulty payload assembly.

Loading next visibility...
Identifier
10661, 1976-077X
Orbit
SSO
Country
Flag of USUS
Related business
Manufacturer
Unknown
Mission
Spacecraft
Bus & Motor
Unknown
Mass
Unknown
Launch date (UTC)
1976-07-29 (49 years ago)
Launch vehicle
Unknown
Launch site
Air Force Western Test Range (AFWTR)
Object type
Payload
Rocket body
Debris
Shape & HBR
Unknown shape, 0.1 m
Radar Cross Section
Small (<0.1 m²)

Expand to show TLE details & history
Last TLE update: 1 day ago

TLE from 1 day ago
0 DELTA 1 DEB
1 10661U 76077X   25348.82038166  .00003134  00000-0  58500-2 0  9998
2 10661 101.1919 301.0195 0121795 101.7327 314.2196 13.37236395310151
Epoch: 2025-12-14T19:41Z
TLE epoch observation values (Epoch: 2025-12-14T19:41:20.975Z)
Latitude
53.51696°
Longitude
-93.48261°
Altitude
1,065.083 km
Speed
7.355 km/s
True Right ascension
19h 02m 19s
True Declination
53° 21' 33"
Sunlit
Object was in daylight at epoch
Visualization orbit readout
Latitude
Unknown
Longitude
Unknown
Altitude
Unknown
Speed
Unknown
Apparent Right ascension
Unknown
Apparent Declination
Unknown
Sunlit
N/A
Visualization observer readout
Local Sidereal Time
22:28:33
Azimuth
Unknown
Elevation
Unknown
Doppler factor
Unknown
Orbital elements
Apogee altitude
1,208.278 km
Perigee altitude
1,025.704 km
Semi-major axis
7,495.128 km
Eccentricity
0.01218
Inclination
101.1919°
RAAN
301.0195°
Arg. of periapsis
101.7327°
True anomaly
313.20869°
Mean anomaly
314.2196°
Eccentric anomaly
313.71522°
Mean motion
3.34483 °/min
Orbital period
107.63 mins
BSTAR
0.00585
Loading maneuver chart data...
Computing Atmospheric mass density...
Loading historical data...
Loading historical data...
Loading historical data...
Loading historical data...
Loading historical data...
Loading historical data...
Loading historical data...

Documentation

Showing up to 5 results
|